SES-8

Last updated on Tue Sep 16 2025 00:02:48 GMT+0000 (Coordinated Universal Time)

1 39460U 13071A 25258.60670025 -.00000286 00000+0 00000+0 0 9997 2 39460 0.0348 264.4453 0001910 250.6530 153.1110 1.00269877 41679
UTC large
Height (km)
Speed (km/s)
/
Latitude / Longitude
Inclination (degrees)
Orbital Period (minutes)
Azimuth
Elevation
Range (km)
Doppler Factor

Next 0 passes for location: London (51.5072 / 0.1276)

Sorry there are no passes over London.